Regional Weather Roundup
Issued by NWS Jackson, KY

Home | Current Version | Previous Version | Text Only | Print | Product List | Glossary Off
Versions: 1 2 3 4 5 6 7 8 9 10 11 12 13 14 15 16 17 18 19 20 21 22 23 24 25 26 27 28

000
ASUS43 KJKL 200810
RWRJKL

EAST KENTUCKY HOURLY WEATHER ROUNDUP
NATIONAL WEATHER SERVICE JACKSON KY
400 AM EDT FRI OCT 20 2017

NOTE: "FAIR" INDICATES FEW OR NO CLOUDS BELOW 12,000 FEET WITH
NO SIGNIFICANT WEATHER AND/OR OBSTRUCTIONS TO VISIBILITY.

* THESE REPORTS ARE NOT UNDER NWS QUALITY CONTROL AND MAY NOT
  REPORT WEATHER SUCH AS PRECIPITATION AND FOG.

KYZ079-080-083-085-087-088-110-112-115-119-120-200900
...EASTERN KENTUCKY...

CITY           SKY/WX    TMP DP  RH WIND       PRES   REMARKS
JACKSON          N/A     52  46  80 S3        30.28S
LONDON           N/A     45  43  93 CALM      30.28S
SOMERSET*        N/A     43  43 100 CALM      30.29S
MONTICELLO*      N/A     42  41  96 W7        30.29S
WILLIAMSBURG*    N/A     46  46 100 CALM      30.28S
MIDDLESBORO*   FOG       43  43 100 CALM      30.32R VSB 1/4
HARLAN APT*    CLOUDY    45  43  93 CALM      30.31S VSB 1/4
PIKE CO APT*     N/A     53  47  80 S5        30.28S
BIG SANDY APT*   N/A     52  48  86 S3        30.28S
MOREHEAD APT*    N/A     50  48  93 CALM      30.28S
$$

KYZ035-036-041-042-044-050-067-078-099-200900
...CENTRAL KENTUCKY...

CITY           SKY/WX    TMP DP  RH WIND       PRES   REMARKS
MT STERLING*     N/A     46  46 100 SW6       30.27F
FLEMING/MASON*   N/A     49  47  93 CALM      30.27S
DANVILLE*        N/A     45  43  93 CALM      30.28S
LEXINGTON        N/A     48  44  86 SE3       30.26S
FRANKFORT        N/A     47  43  86 CALM      30.25S
LOUISVILLE       N/A     54  51  90 SE3       30.24S
LEBANON*         N/A     50  46  87 CALM      30.26S
GLASGOW*         N/A    N/A N/A N/A CALM      30.26R
BOWLING GREEN  FOG       47  47 100 CALM      30.26S VSB 1/4
$$

KYZ091>093-OHZ055-061-077-WVZ005-015-034-035-042-200900
...SOUTHERN OHIO/WEST VIRGINIA...

CITY           SKY/WX    TMP DP  RH WIND       PRES   REMARKS
COVINGTON        N/A     51  51 100 CALM      30.24S
COLUMBUS         N/A     50  49  96 CALM      30.24R
DAYTON           N/A     52  50  93 CALM      30.25R
WILMINGTON       N/A     51  49  92 W6        30.24F
HUNTINGTON       N/A     48  45  89 S5        30.25S
CHARLESTON       N/A     47  45  93 CALM      30.26S
PINEVILLE*       N/A     42  40  95 MISG      30.35S
BECKLEY          N/A     49  40  71 S3        30.29S
BLUEFIELD        N/A     50  39  66 W9        30.31S
LOGAN CO APT*    N/A     50  46  87 CALM      30.28S
$$

VAZ002-007-008-TNZ017-027-036-066-071-200900
...SOUTHWEST VIRGINIA/EAST TENNESSEE...

CITY           SKY/WX    TMP DP  RH WIND       PRES   REMARKS
WISE*            N/A     52  43  71 CALM      30.32S
JONESVILLE*      N/A     39  39 100 CALM      30.32S
ABINGDON*        N/A     46  42  86 CALM      30.31S
BRISTOL          N/A     42  42 100 CALM      30.30S
MORRISTOWN*    SUNNY     48  46  93 CALM      30.28S
SEVIERVILLE*   SUNNY     43  43 100 CALM      30.28S
KNOXVILLE        N/A     48  48 100 CALM      30.27S
LAFOLLETTE*    FOG       45  45 100 CALM      30.32S VSB 1/4
OAK RIDGE      FOG       47  47 100 CALM      30.30R VSB 1
CROSSVILLE       N/A     44  43  96 CALM      30.29S
NASHVILLE        N/A     49  46  90 CALM      30.26R
$$

...KEY TO REMARKS...
VSB - VISIBILITY IN MILES
WCI - WIND CHILL INDEX
HX  - HEAT INDEX

$$




USA.gov is the U.S. government's official web portal to all federal, state and local government web resources and services.